Other Surface Observations
Issued by NWS

Home | Current Version | Previous Version | Text Only | Print | Product List | Glossary On
Versions: 1 2 3 4 5 6 7 8 9 10 11 12 13 14 15 16 17 18 19 20 21 22 23 24 25 26 27 28 29 30 31 32 33 34 35 36 37 38 39 40 41 42 43 44 45 46 47 48 49 50
490
SXUS52 KTAE 301818
OSOTAE
OSOTAE
North Florida/South Alabama/Southwest Georgia Weather Roundup
National Weather Service Tallahassee Florida
200 PM EDT FRI SEP 30 2016

Note: "fair" indicates few or no clouds below 12,000 feet with no
significant weather and/or obstructions to visibility.

!FLZ017-115-028-034-025-301900
...North Florida...

CITY           SKY/WX    TMP DP  RH WIND       PRES   REMARKS
TALLAHASSEE    SUNNY     82  51  34 CALM      30.04F
APALACHICOLA   SUNNY     83  56  39 N6        30.05F
PERRY          SUNNY     84  55  37 W6        30.04F
CROSS CITY     SUNNY     86  61  42 SW8       30.03F
JACKSONVILLE   MOSUNNY   87  64  46 SW8       30.01F
$$

!FLZ112-006-005-002-011-301900
...Florida Panhandle...

CITY           SKY/WX    TMP DP  RH WIND       PRES   REMARKS
MARIANNA       SUNNY     79  50  36 W9        30.04F
BONIFAY        FAIR      80  53  39 VRB3      30.06F
PANAMA CITY NW FAIR      80  51  36 NW12      30.04F
TYNDALL AFB    SUNNY     80  50  35 VRB5      30.05F
TYND DRONE APT FAIR      79  53  40 N10       30.05F
DE FUNIAK SPR  FAIR      76  52  43 NE5       30.07F
EGLIN AFB      SUNNY     80  50  35 NW6       30.05F
DESTIN         SUNNY     81  52  36 VRB3      30.05F
HURLBURT       SUNNY     80  50  35 W8        30.04F
CRESTVIEW      SUNNY     77  50  38 MISG      30.08F
PENSACOLA      SUNNY     79  51  37 NW9       30.07F
$$

!ALZ063-066-301900
...South Alabama...

CITY           SKY/WX    TMP DP  RH WIND       PRES   REMARKS
DOTHAN         SUNNY     77  50  38 N10       30.09F
OZARK CAIRNS   SUNNY     75  53  45 VRB7      30.06F
FT RUCKER HELI SUNNY     76  51  41 VRB5      30.05F
RUCKER HELI 3  NOT AVBL
RUCKER HELI 2  FAIR      76  50  40 VRB5      30.05F
FLORALA APT    SUNNY     76  49  38 VRB3      30.08F
ANDALUSIA      SUNNY     80  51  36 W6        30.07F
TROY           SUNNY     75  49  39 N8        30.08F
EUFALA         FAIR      80  47  31 W7        30.04F
MOBILE         MOSUNNY   76  54  46 VRB5      30.10F
$$

!GAZ120>161-301900
...Southwest and South Central Georgia...

CITY           SKY/WX    TMP DP  RH WIND       PRES   REMARKS
THOMASVILLE    FAIR      79  54  41 W5        30.06F
BAINBRIDGE     SUNNY     79  52  38 CALM      30.05F
MOODY AFB      SUNNY     81  49  33 VRB2      30.02F
VALDOSTA       SUNNY     83  50  31 CALM      30.03F
MOULTRIE       SUNNY     77  48  36 SW6       30.05F
BLAKELY        SUNNY     79  48  34 W8        30.05F
ALBANY         SUNNY     79  50  36 W8        30.05F
TIFTON         FAIR      78  48  35 W5        30.04F
FITZGERALD       N/A     83  54  37 W9        30.06F
CORDELE        FAIR      80  49  33 W7G18     30.05F
AMERICUS       FAIR      73  41  31 W6        30.06F
HOMERVILLE     FAIR      82  54  36 W7        30.03F
$$

!GMZ750-755-770-775-301900
...Coastal and Buoy Obs...

STATION/POSITION TIME  TEMP    WIND        PRES    VSBY  WAVE
                       AIR SEA DIR/SP/G                  HT/PER
                 (UTC) (F)     (DEG/KT/KT) (MB)    (MI)  (FT/S)
KEATON BEACH     1800   80     270/  7/  7 1017.0F
CEDAR KEY        1800   83     290/  7/  9 1017.3F
C TOWER          1800   76      20/  4/  6 1018.3F
APALACHICOLA BUO 1750   81 85   30/  8/ 10 1017.1F         2/ 4
PANAMA CITY BUOY 1750   78 84              1018.1F         2/ 5
MOBILE BUOY      1800   77 84  360/  8/ 14 1018.1F
ORANGE BCH AL BU 1750   74 84  320/  6/  8 1018.9F         1/ 4
$$




USA.gov is the U.S. government's official web portal to all federal, state and local government web resources and services.